Time,TemperatureF,DewpointF,PressureIn,WindDirection,WindDirectionDegrees,WindSpeedMPH,WindSpeedGustMPH,Humidity,HourlyPrecipIn,Conditions,Clouds,dailyrainin,SoftwareType,DateUTC
2013-09-03 00:03:00,80.7,-99.9,29.89,North,5,17.0,-999.0,0,-99.99,,,0.00,weatherlink.com 1.10,2013-09-03 04:03:00,
2013-09-03 00:18:00,80.8,-99.9,29.89,North,5,14.0,-999.0,0,-99.99,,,0.00,weatherlink.com 1.10,2013-09-03 04:18:00,
2013-09-03 00:33:00,80.7,-99.9,29.89,North,5,14.0,-999.0,0,-99.99,,,0.00,weatherlink.com 1.10,2013-09-03 04:33:00,
2013-09-03 00:48:00,80.7,-99.9,29.89,North,5,16.0,-999.0,0,-99.99,,,0.00,weatherlink.com 1.10,2013-09-03 04:48:00,
2013-09-03 01:03:00,80.7,-99.9,29.89,North,5,15.0,-999.0,0,-99.99,,,0.00,weatherlink.com 1.10,2013-09-03 05:03:00,
2013-09-03 01:18:00,80.6,-99.9,29.88,North,5,16.0,-999.0,0,-99.99,,,0.00,weatherlink.com 1.10,2013-09-03 05:18:00,
2013-09-03 01:33:00,80.5,-99.9,29.88,North,5,16.0,-999.0,0,-99.99,,,0.00,weatherlink.com 1.10,2013-09-03 05:33:00,
2013-09-03 01:49:00,80.5,-99.9,29.88,North,5,20.0,-999.0,0,-99.99,,,0.00,weatherlink.com 1.10,2013-09-03 05:49:00,
2013-09-03 02:03:00,80.3,-99.9,29.87,North,5,17.0,-999.0,0,-99.99,,,0.00,weatherlink.com 1.10,2013-09-03 06:03:00,
2013-09-03 02:19:00,80.3,-99.9,29.87,North,5,18.0,-999.0,0,-99.99,,,0.00,weatherlink.com 1.10,2013-09-03 06:19:00,
2013-09-03 02:34:00,80.3,-99.9,29.87,North,5,18.0,-999.0,0,-99.99,,,0.00,weatherlink.com 1.10,2013-09-03 06:34:00,
2013-09-03 02:49:00,80.3,-99.9,29.87,North,5,11.0,-999.0,0,-99.99,,,0.00,weatherlink.com 1.10,2013-09-03 06:49:00,
2013-09-03 03:04:00,80.2,-99.9,29.86,North,5,10.0,-999.0,0,-99.99,,,0.00,weatherlink.com 1.10,2013-09-03 07:04:00,
2013-09-03 03:20:00,80.2,-99.9,29.86,North,5,6.0,-999.0,0,-99.99,,,0.00,weatherlink.com 1.10,2013-09-03 07:20:00,
2013-09-03 03:34:00,80.1,-99.9,29.86,North,5,4.0,-999.0,0,-99.99,,,0.00,weatherlink.com 1.10,2013-09-03 07:34:00,
2013-09-03 03:48:00,79.7,-99.9,29.86,North,5,2.0,-999.0,0,-99.99,,,0.00,weatherlink.com 1.10,2013-09-03 07:48:00,
2013-09-03 04:03:00,79.5,-99.9,29.86,North,5,0.0,-999.0,0,-99.99,,,0.00,weatherlink.com 1.10,2013-09-03 08:03:00,
2013-09-03 04:18:00,79.7,-99.9,29.85,North,5,7.0,-999.0,0,-99.99,,,0.00,weatherlink.com 1.10,2013-09-03 08:18:00,
2013-09-03 04:34:00,79.8,-99.9,29.86,North,5,7.0,-999.0,0,-99.99,,,0.00,weatherlink.com 1.10,2013-09-03 08:34:00,
2013-09-03 04:49:00,79.6,-99.9,29.86,North,5,9.0,-999.0,0,-99.99,,,0.00,weatherlink.com 1.10,2013-09-03 08:49:00,
2013-09-03 05:04:00,79.2,-99.9,29.87,North,5,9.0,-999.0,0,-99.99,,,0.00,weatherlink.com 1.10,2013-09-03 09:04:00,
2013-09-03 05:19:00,78.4,-99.9,29.88,North,5,12.0,-999.0,0,-99.99,,,0.00,weatherlink.com 1.10,2013-09-03 09:19:00,
2013-09-03 05:34:00,77.9,-99.9,29.87,North,5,13.0,-999.0,0,-99.99,,,0.00,weatherlink.com 1.10,2013-09-03 09:34:00,
2013-09-03 05:49:00,77.7,-99.9,29.87,North,5,16.0,-999.0,0,-99.99,,,0.00,weatherlink.com 1.10,2013-09-03 09:49:00,
2013-09-03 06:04:00,77.4,-99.9,29.87,North,5,11.0,-999.0,0,-99.99,,,0.00,weatherlink.com 1.10,2013-09-03 10:04:00,
2013-09-03 06:19:00,77.7,-99.9,29.88,North,5,15.0,-999.0,0,-99.99,,,0.00,weatherlink.com 1.10,2013-09-03 10:19:00,
2013-09-03 06:34:00,78.3,-99.9,29.88,North,5,11.0,-999.0,0,-99.99,,,0.00,weatherlink.com 1.10,2013-09-03 10:34:00,
2013-09-03 06:49:00,77.6,-99.9,29.88,North,5,10.0,-999.0,0,-99.99,,,0.00,weatherlink.com 1.10,2013-09-03 10:49:00,
2013-09-03 07:04:00,77.8,-99.9,29.89,North,5,14.0,-999.0,0,-99.99,,,0.00,weatherlink.com 1.10,2013-09-03 11:04:00,
2013-09-03 07:19:00,77.4,-99.9,29.89,North,5,13.0,-999.0,0,-99.99,,,0.00,weatherlink.com 1.10,2013-09-03 11:19:00,
2013-09-03 07:34:00,78.0,-99.9,29.90,North,5,15.0,-999.0,0,-99.99,,,0.00,weatherlink.com 1.10,2013-09-03 11:34:00,
2013-09-03 07:49:00,77.6,-99.9,29.91,North,5,16.0,-999.0,0,-99.99,,,0.00,weatherlink.com 1.10,2013-09-03 11:49:00,
2013-09-03 08:05:00,77.0,-99.9,29.91,North,5,17.0,-999.0,0,-99.99,,,0.00,weatherlink.com 1.10,2013-09-03 12:05:00,
2013-09-03 08:20:00,76.9,-99.9,29.91,North,5,17.0,-999.0,0,-99.99,,,0.00,weatherlink.com 1.10,2013-09-03 12:20:00,
2013-09-03 08:35:00,77.1,-99.9,29.91,North,5,13.0,-999.0,0,-99.99,,,0.00,weatherlink.com 1.10,2013-09-03 12:35:00,
2013-09-03 08:50:00,77.2,-99.9,29.91,North,5,12.0,-999.0,0,-99.99,,,0.00,weatherlink.com 1.10,2013-09-03 12:50:00,
2013-09-03 09:05:00,77.6,-99.9,29.91,North,5,5.0,-999.0,0,-99.99,,,0.00,weatherlink.com 1.10,2013-09-03 13:05:00,
2013-09-03 09:20:00,77.3,-99.9,29.91,North,5,10.0,-999.0,0,-99.99,,,0.00,weatherlink.com 1.10,2013-09-03 13:20:00,
2013-09-03 09:35:00,77.1,-99.9,29.91,North,5,12.0,-999.0,0,-99.99,,,0.00,weatherlink.com 1.10,2013-09-03 13:35:00,
2013-09-03 09:50:00,77.1,-99.9,29.91,North,5,16.0,-999.0,0,-99.99,,,0.00,weatherlink.com 1.10,2013-09-03 13:50:00,
2013-09-03 10:05:00,77.4,-99.9,29.92,North,5,12.0,-999.0,0,-99.99,,,0.00,weatherlink.com 1.10,2013-09-03 14:05:00,
2013-09-03 10:20:00,78.0,-99.9,29.92,North,5,14.0,-999.0,0,-99.99,,,0.00,weatherlink.com 1.10,2013-09-03 14:20:00,
2013-09-03 10:35:00,78.5,-99.9,29.92,North,5,13.0,-999.0,0,-99.99,,,0.00,weatherlink.com 1.10,2013-09-03 14:35:00,
2013-09-03 10:50:00,79.2,-99.9,29.92,North,5,10.0,-999.0,0,-99.99,,,0.00,weatherlink.com 1.10,2013-09-03 14:50:00,
2013-09-03 11:05:00,79.5,-99.9,29.92,North,5,11.0,-999.0,0,-99.99,,,0.00,weatherlink.com 1.10,2013-09-03 15:05:00,
2013-09-03 11:21:00,78.9,-99.9,29.92,North,5,15.0,-999.0,0,-99.99,,,0.00,weatherlink.com 1.10,2013-09-03 15:21:00,
2013-09-03 11:36:00,78.8,-99.9,29.93,North,5,19.0,-999.0,0,-99.99,,,0.00,weatherlink.com 1.10,2013-09-03 15:36:00,
2013-09-03 11:51:00,79.4,-99.9,29.93,North,5,19.0,-999.0,0,-99.99,,,0.00,weatherlink.com 1.10,2013-09-03 15:51:00,
2013-09-03 12:06:00,78.9,-99.9,29.93,North,5,14.0,-999.0,0,-99.99,,,0.00,weatherlink.com 1.10,2013-09-03 16:06:00,
2013-09-03 12:21:00,80.1,-99.9,29.92,North,5,18.0,-999.0,0,-99.99,,,0.00,weatherlink.com 1.10,2013-09-03 16:21:00,
2013-09-03 12:36:00,79.8,-99.9,29.91,North,5,17.0,-999.0,0,-99.99,,,0.00,weatherlink.com 1.10,2013-09-03 16:36:00,
2013-09-03 13:06:00,80.1,-99.9,29.91,North,5,19.0,-999.0,0,-99.99,,,0.00,weatherlink.com 1.10,2013-09-03 17:06:00,
2013-09-03 13:21:00,79.9,-99.9,29.91,North,5,18.0,-999.0,0,-99.99,,,0.00,weatherlink.com 1.10,2013-09-03 17:21:00,
2013-09-03 13:52:00,79.6,-99.9,29.89,North,5,17.0,-999.0,0,-99.99,,,0.00,weatherlink.com 1.10,2013-09-03 17:52:00,
2013-09-03 14:07:00,79.4,-99.9,29.89,North,5,18.0,-999.0,0,-99.99,,,0.00,weatherlink.com 1.10,2013-09-03 18:07:00,
2013-09-03 14:24:00,79.8,-99.9,29.88,North,5,15.0,-999.0,0,-99.99,,,0.00,weatherlink.com 1.10,2013-09-03 18:24:00,
2013-09-03 14:37:00,80.5,-99.9,29.88,North,5,12.0,-999.0,0,-99.99,,,0.00,weatherlink.com 1.10,2013-09-03 18:37:00,
2013-09-03 14:52:00,81.0,-99.9,29.87,North,5,11.0,-999.0,0,-99.99,,,0.00,weatherlink.com 1.10,2013-09-03 18:52:00,
2013-09-03 15:07:00,80.2,-99.9,29.86,North,5,12.0,-999.0,0,-99.99,,,0.00,weatherlink.com 1.10,2013-09-03 19:07:00,
2013-09-03 15:22:00,80.5,-99.9,29.86,North,5,17.0,-999.0,0,-99.99,,,0.00,weatherlink.com 1.10,2013-09-03 19:22:00,
2013-09-03 15:37:00,80.2,-99.9,29.86,North,5,16.0,-999.0,0,-99.99,,,0.00,weatherlink.com 1.10,2013-09-03 19:37:00,
2013-09-03 15:52:00,80.1,-99.9,29.86,North,5,17.0,-999.0,0,-99.99,,,0.00,weatherlink.com 1.10,2013-09-03 19:52:00,
2013-09-03 16:07:00,80.3,-99.9,29.86,North,5,15.0,-999.0,0,-99.99,,,0.00,weatherlink.com 1.10,2013-09-03 20:07:00,
2013-09-03 16:22:00,79.9,-99.9,29.88,North,5,14.0,-999.0,0,-99.99,,,0.00,weatherlink.com 1.10,2013-09-03 20:22:00,
2013-09-03 16:38:00,79.9,-99.9,29.88,North,5,12.0,-999.0,0,-99.99,,,0.00,weatherlink.com 1.10,2013-09-03 20:38:00,
2013-09-03 16:53:00,80.5,-99.9,29.87,North,5,9.0,-999.0,0,-99.99,,,0.00,weatherlink.com 1.10,2013-09-03 20:53:00,
2013-09-03 17:08:00,80.2,-99.9,29.87,North,5,8.0,-999.0,0,-99.99,,,0.00,weatherlink.com 1.10,2013-09-03 21:08:00,
2013-09-03 17:23:00,79.9,-99.9,29.88,North,5,11.0,-999.0,0,-99.99,,,0.00,weatherlink.com 1.10,2013-09-03 21:23:00,
2013-09-03 17:38:00,80.5,-99.9,29.88,North,5,7.0,-999.0,0,-99.99,,,0.00,weatherlink.com 1.10,2013-09-03 21:38:00,
2013-09-03 17:53:00,80.1,-99.9,29.88,North,5,5.0,-999.0,0,-99.99,,,0.00,weatherlink.com 1.10,2013-09-03 21:53:00,
2013-09-03 18:08:00,74.8,-99.9,29.89,North,5,7.0,-999.0,0,-99.99,,,0.00,weatherlink.com 1.10,2013-09-03 22:08:00,
2013-09-03 18:23:00,73.4,-99.9,29.90,North,5,4.0,-999.0,0,-99.99,,,0.07,weatherlink.com 1.10,2013-09-03 22:23:00,
2013-09-03 18:38:00,72.5,-99.9,29.89,North,5,7.0,-999.0,0,-99.99,,,0.25,weatherlink.com 1.10,2013-09-03 22:38:00,
2013-09-03 18:53:00,73.1,-99.9,29.88,North,5,5.0,-999.0,0,-99.99,,,0.26,weatherlink.com 1.10,2013-09-03 22:53:00,
2013-09-03 19:08:00,73.7,-99.9,29.88,North,5,2.0,-999.0,0,-99.99,,,0.26,weatherlink.com 1.10,2013-09-03 23:08:00,
2013-09-03 19:23:00,74.5,-99.9,29.90,North,5,2.0,-999.0,0,-99.99,,,0.26,weatherlink.com 1.10,2013-09-03 23:23:00,
2013-09-03 19:38:00,74.5,-99.9,29.90,North,5,2.0,-999.0,0,-99.99,,,0.26,weatherlink.com 1.10,2013-09-03 23:38:00,
2013-09-03 19:54:00,74.5,-99.9,29.91,North,5,3.0,-999.0,0,-99.99,,,0.26,weatherlink.com 1.10,2013-09-03 23:54:00,
2013-09-03 20:09:00,73.4,-99.9,29.92,North,5,10.0,-999.0,0,-99.99,,,0.26,weatherlink.com 1.10,2013-09-04 00:09:00,
2013-09-03 20:24:00,73.3,-99.9,29.91,North,5,11.0,-999.0,0,-99.99,,,0.26,weatherlink.com 1.10,2013-09-04 00:24:00,
2013-09-03 20:39:00,72.6,-99.9,29.91,North,5,0.0,-999.0,0,-99.99,,,0.26,weatherlink.com 1.10,2013-09-04 00:39:00,
2013-09-03 21:09:00,72.1,-99.9,29.92,North,5,0.0,-999.0,0,-99.99,,,0.27,weatherlink.com 1.10,2013-09-04 01:09:00,
2013-09-03 21:23:00,72.7,-99.9,29.92,North,5,2.0,-999.0,0,-99.99,,,0.27,weatherlink.com 1.10,2013-09-04 01:23:00,
2013-09-03 21:38:00,73.0,-99.9,29.92,North,5,5.0,-999.0,0,-99.99,,,0.27,weatherlink.com 1.10,2013-09-04 01:38:00,
2013-09-03 21:53:00,73.5,-99.9,29.93,North,5,4.0,-999.0,0,-99.99,,,0.27,weatherlink.com 1.10,2013-09-04 01:53:00,
2013-09-03 22:09:00,73.7,-99.9,29.93,North,5,2.0,-999.0,0,-99.99,,,0.27,weatherlink.com 1.10,2013-09-04 02:09:00,
2013-09-03 22:24:00,73.9,-99.9,29.94,North,5,3.0,-999.0,0,-99.99,,,0.27,weatherlink.com 1.10,2013-09-04 02:24:00,
2013-09-03 22:39:00,74.1,-99.9,29.95,North,5,3.0,-999.0,0,-99.99,,,0.27,weatherlink.com 1.10,2013-09-04 02:39:00,
2013-09-03 22:54:00,74.5,-99.9,29.96,North,5,6.0,-999.0,0,-99.99,,,0.27,weatherlink.com 1.10,2013-09-04 02:54:00,
2013-09-03 23:09:00,72.7,-99.9,29.96,North,5,6.0,-999.0,0,-99.99,,,0.27,weatherlink.com 1.10,2013-09-04 03:09:00,
2013-09-03 23:24:00,72.5,-99.9,29.97,North,5,6.0,-999.0,0,-99.99,,,0.27,weatherlink.com 1.10,2013-09-04 03:24:00,
2013-09-03 23:40:00,73.2,-99.9,29.97,North,5,8.0,-999.0,0,-99.99,,,0.27,weatherlink.com 1.10,2013-09-04 03:40:00,
2013-09-03 23:55:00,73.1,-99.9,29.97,North,5,8.0,-999.0,0,-99.99,,,0.27,weatherlink.com 1.10,2013-09-04 03:55:00,